STARLINK-35927, 66624

Orbit data source: Space-Track

STARLINK-35927, 66624 is a payload satellite owned by SpaceX/Seattle (US) in LEO that was launched on Sun, 23 Nov 2025 UTC via an FALCON 9 launch vehicle from the Air Force Western Test Range (AFWTR). Payload-class satellites include a variety of spacecraft equipped with specific instruments for various scientific and technological missions. These include communications satellites like Starlink; space stations such as the ISS; scientific satellites like the Hubble; Earth observation satellites from companies like Planet Labs, Umbra, and HawkEye 360; GPS; miniature CubeSats for education and research; and military/defense satellites.

Loading next visibility...
Identifier
66624, 2025-271H
Orbit
LEO
Country
Flag of USUS
Related business
Manufacturer
SpaceX/Seattle
Mission
Operational Commercial Communications
Bus & Motor
STARLINK V2MO, Unknown motor
Mass
575 kg wet, ~530 kg dry
Launch date (UTC)
2025-11-23 (1 month ago)
Launch vehicle
FALCON 9
Launch site
Air Force Western Test Range (AFWTR)
Object type
Payload
Rocket body
Debris
Shape & HBR
Box + 2 Pan, 17.7 m
Radar Cross Section
36.964 m²

Expand to show TLE details & history
Last TLE update: 2 days ago

TLE from 2 days ago
0 STARLINK-35927
1 66624U 25271H   25353.94751832 -.00403682  00000-0 -84107-2 0  9995
2 66624  53.1590 152.7553 0000849 106.2501 253.8600 15.46532201  5326
Epoch: 2025-12-19T22:44Z
TLE epoch observation values (Epoch: 2025-12-19T22:44:25.582Z)
Latitude
-0.00006°
Longitude
82.8673°
Altitude
427.946 km
Speed
7.656 km/s
True Right ascension
10h 11m 01s
True Declination
0° 00' 00"
Sunlit
Object was in full shadow at epoch
Visualization orbit readout
Latitude
Unknown
Longitude
Unknown
Altitude
Unknown
Speed
Unknown
Apparent Right ascension
Unknown
Apparent Declination
Unknown
Sunlit
N/A
Visualization observer readout
Local Sidereal Time
13:59:01
Azimuth
Unknown
Elevation
Unknown
Doppler factor
Unknown
Orbital elements
Apogee altitude
427.716 km
Perigee altitude
426.56 km
Semi-major axis
6,805.275 km
Eccentricity
0.00008
Inclination
53.159°
RAAN
152.7553°
Arg. of periapsis
106.2501°
True anomaly
253.85065°
Mean anomaly
253.86°
Eccentric anomaly
253.85533°
Mean motion
3.86611 °/min
Orbital period
93.12 mins
BSTAR
-0.0084107
Loading maneuver chart data...
Computing Atmospheric mass density...
Loading historical data...
Loading historical data...
Loading historical data...
Loading historical data...
Loading historical data...
Loading historical data...
Loading historical data...

Documentation

Showing up to 5 results
|